Location: La Ronge
(55.1000°N, 105.3000°W)
Time: 14:15:14
(UTC-06:00)

Daily predictions for brighter satellites

Satellite Brightness Start Highest point End
(mag) Time Altitude Azimuth Time Altitude Azimuth Time Altitude Azimuth
NOSS 0 Rocket 4.1 22:32:23 10° NW 22:38:34 76° NE 22:44:45 10° SE
USA 229 DEB 3.8 22:32:46 10° SSW 22:39:35 61° SE 22:46:30 10° NE
USA 229 3.8 22:32:53 10° SSW 22:39:41 61° SE 22:46:35 10° NE
IGS 5A 3.5 22:37:27 10° SSE 22:41:37 79° ENE 22:45:49 10° NNW
Spot 4 4.0 22:37:27 10° SSE 22:42:16 74° ENE 22:47:09 10° NNW
ATLAS 5 CENTAUR R/B 2.8 22:37:50 10° WSW 22:42:53 61° NNW 22:48:26 10° NE
Cosmos 968 Rocket 4.3 22:39:01 10° SW 22:44:10 58° WNW 22:49:23 10° NNE
Cosmos 2297 Rocket 4.2 22:43:26 10° ESE 22:44:52 11° E 22:46:19 10° ENE
SeaSat 1 2.7 22:42:10 10° SE 22:47:03 66° NE 22:51:59 10° NNW
Cosmos 2219 Rocket 2.2 22:42:45 10° NNW 22:48:23 87° ENE 22:54:00 10° SSE
Cosmos 292 Rocket 3.8 22:45:14 10° NNW 22:50:03 88° WSW 22:54:49 10° SSE
CZ-4 R/B 4.0 22:45:58 10° NNE 22:51:01 89° ESE 22:55:56 10° SSW
Terra 2.0 22:47:47 10° SSE 22:52:33 79° WSW 22:57:21 10° NNW
Cosmos 1862 Rocket 4.0 22:48:16 10° N 22:52:35 51° ENE 22:56:49 10° SSE
SL-14 R/B 3.4 22:50:16 10° S 22:54:10 65° E 22:58:10 10° NNE
Cosmos 1703 3.9 22:51:58 10° SSE 22:55:39 40° E 22:59:21 10° NNE
Cosmos 1271 Rocket 2.7 22:53:42 10° NNW 22:57:31 81° WSW 23:01:21 10° S
Cosmos 2344 4.5 22:50:49 10° WSW 22:58:55 67° NNW 23:09:17 10° ENE
NOSS 3-1 (A) 4.4 22:54:27 10° S 22:59:33 29° ESE 23:05:08 10° ENE
Cosmos 1980 3.8 22:54:31 10° NNW 23:00:14 82° ENE 23:05:53 10° SE
BREEZE-M DEB (TANK) 4.3 22:42:38 10° W 23:01:05 60° S 23:05:38 10° ESE
CARTOSAT-1 4.0 22:58:13 10° S 23:02:29 60° WSW 23:06:48 10° NNW
Cosmos 2298 Rocket 4.4 22:57:43 10° S 23:02:49 47° ESE 23:07:54 10° NE
ARGOS 4.4 22:58:25 10° SSW 23:03:25 37° W 23:08:25 10° NNW
GEOS 3 Rocket 3.7 23:00:47 10° SE 23:06:01 82° SW 23:11:14 10° NW
Cosmos 2219 3.3 23:02:48 10° SSW 23:08:29 63° ESE 23:14:10 10° NE
Cosmos 1633 Rocket 3.1 23:04:33 10° S 23:08:56 79° E 23:13:20 10° NNE
Sich 1 3.1 23:06:15 10° S 23:10:41 86° E 23:15:07 10° NNE
Cosmos 1726 3.3 23:08:52 10° NNW 23:12:24 39° W 23:15:56 10° SSW
Cosmos 2237 Rocket 2.3 23:08:13 10° NW 23:13:58 89° WSW 23:19:39 10° SSE
Cosmos 1437 4.4 23:11:56 10° SW 23:15:00 35° WNW 23:18:05 10° N
H-2A R/B 2.9 23:13:21 10° S 23:18:31 49° W 23:23:49 10° NNW
Cosmos 1937 Rocket 4.0 23:15:36 10° S 23:20:30 42° ESE 23:25:25 10° NE
Cosmos 389 Rocket 4.3 23:17:47 10° N 23:20:45 23° ENE 23:23:41 10° ESE
Cosmos 1805 Rocket 4.3 23:17:15 10° SSW 23:21:38 55° WNW 23:26:02 10° N
Iridium 2 3.7 23:17:58 10° S 23:21:48 89° ESE 23:25:42 10° N
ATLAS 2AS CENTAUR R/B 4.2 23:17:03 10° SSE 23:22:52 24° ESE 23:28:56 10° ENE
Cosmos 192 4.4 23:18:42 10° NNW 23:23:39 84° ENE 23:28:21 11° SSE
Cosmos 1269 Rocket 4.4 23:19:45 10° NNW 23:25:04 63° ENE 23:30:20 10° SE
Nadezhda 1 Rocket 4.1 23:19:57 10° NNW 23:26:03 76° W 23:32:07 10° S
ALOS 2 3.6 23:23:22 10° SE 23:27:25 37° ENE 23:31:29 10° N
Cosmos 2360 Rocket 4.3 23:24:07 10° WNW 23:27:51 18° W 23:31:34 10° SW
Cosmos 990 Rocket 4.5 23:33:11 10° S 23:37:55 42° ESE 23:42:47 10° NE
CZ-4C R/B 3.5 23:33:34 10° NW 23:39:52 52° NNE 23:47:01 10° E
USA 238 DEB 4.1 23:33:21 10° NW 23:40:25 68° NNE 23:47:26 10° ESE
USA 238 4.1 23:33:28 10° NW 23:40:31 68° NNE 23:47:32 10° ESE
ATLAS 3B R/B 2.8 23:33:59 10° NW 23:41:15 85° SW 23:48:02 10° SE
Lacrosse 4 Rocket 1.8 23:36:59 10° NW 23:41:21 68° NE 23:45:47 10° SE
DMSP B5D2-2 4.3 23:38:48 10° NNE 23:44:03 73° WNW 23:49:14 10° SSW
Cosmos 1745 Rocket 4.1 23:37:54 10° SSW 23:44:09 81° WNW 23:50:22 10° N
Cosmos 2221 Rocket 3.8 23:40:08 10° N 23:44:43 66° ENE 23:48:42 13° SSE
NOSS 3-1 (C) 3.6 23:41:57 10° SSW 23:47:55 61° SE 23:54:38 10° NE
Cosmos 1869 3.8 23:47:10 10° NNW 23:51:09 56° W 23:54:46 12° S
Cosmos 1709 Rocket 4.1 23:47:07 12° S 23:52:47 62° E 23:58:49 10° NNE
Cosmos 1703 Rocket 3.6 23:48:31 10° N 23:52:54 80° ENE 23:56:37 14° SSE
Cosmos 2150 Rocket 4.2 23:47:36 10° SSW 23:53:05 88° WNW 23:58:36 10° NNE
CZ-4B R/B 2.2 23:51:18 13° SE 23:54:16 45° ENE 23:57:35 10° N
H-2A R/B 3.7 23:50:57 10° NE 23:54:31 28° E 23:57:31 13° SSE
Landsat 5 4.3 23:50:52 11° SE 23:54:55 50° ENE 23:59:19 10° N
Aureole 2 Rocket 3.8 23:53:45 10° N 23:56:21 27° NE 23:59:04 10° ESE
